GW2100 Weather Reports


time (UTC)temp
C
wind
direction
speed
KPH
gust
KPH
rain 1hr
cm
rain 24hr
cm
rain mn
cm
humidity
%
barometer
mb
20260906212003 32 147 20.9 37.0 0.00 0.00 0.00 30 1012.6
20260906211503 32 165 12.9 33.8 0.00 0.00 0.00 30 1012.6
20260906211003 32 152 19.3 37.0 0.00 0.00 0.00 31 1012.8
20260906210503 32 149 17.7 40.2 0.00 0.00 0.00 32 1012.9
20260906210003 32 141 27.4 40.2 0.00 0.00 0.00 31 1012.9
20260906205503 32 145 19.3 38.6 0.00 0.00 0.00 31 1013.0
20260906205003 32 157 17.7 40.2 0.00 0.00 0.00 31 1013.0
20260906204503 32 148 20.9 40.2 0.00 0.00 0.00 32 1013.1
20260906204003 32 146 25.7 40.2 0.00 0.00 0.00 32 1013.1
20260906203503 32 154 17.7 48.3 0.00 0.00 0.00 32 1013.0
20260906203004 32 137 25.7 48.3 0.00 0.00 0.00 33 1013.0
20260906202503 32 143 27.4 46.7 0.00 0.00 0.00 33 1013.1
20260906202003 32 147 22.5 45.1 0.00 0.00 0.00 33 1013.0
20260906201503 32 149 20.9 45.1 0.00 0.00 0.00 32 1013.0
20260906201003 32 149 22.5 48.3 0.00 0.00 0.00 33 1013.1
20260906200503 32 130 30.6 48.3 0.00 0.00 0.00 33 1013.1
20260906200005 32 138 27.4 41.8 0.00 0.00 0.00 33 1013.1
20260906195503 32 138 27.4 41.8 0.00 0.00 0.00 33 1013.2
20260906195003 31 139 27.4 41.8 0.00 0.00 0.00 33 1013.2
20260906194503 32 143 27.4 48.3 0.00 0.00 0.00 33 1013.3
20260906194004 32 123 29.0 48.3 0.00 0.00 0.00 33 1013.3
20260906193503 32 138 27.4 48.3 0.00 0.00 0.00 34 1013.3
20260906193003 32 140 25.7 41.8 0.00 0.00 0.00 33 1013.3
20260906192503 31 141 25.7 41.8 0.00 0.00 0.00 33 1013.3
20260906192003 31 139 30.6 41.8 0.00 0.00 0.00 33 1013.3
20260906191503 31 148 19.3 40.2 0.00 0.00 0.00 33 1013.4
20260906191003 32 147 22.5 40.2 0.00 0.00 0.00 33 1013.5
20260906190503 32 145 25.7 40.2 0.00 0.00 0.00 33 1013.4
20260906190003 32 136 25.7 40.2 0.00 0.00 0.00 33 1013.6
20260906185503 31 138 25.7 38.6 0.00 0.00 0.00 34 1013.6
20260906185003 31 137 25.7 41.8 0.00 0.00 0.00 34 1013.6
20260906184503 32 148 20.9 41.8 0.00 0.00 0.00 33 1013.7
20260906184003 32 139 24.1 41.8 0.00 0.00 0.00 33 1013.7
20260906183503 32 146 24.1 40.2 0.00 0.00 0.00 33 1013.8
20260906183003 31 143 27.4 38.6 0.00 0.00 0.00 33 1013.8
20260906182503 32 145 22.5 38.6 0.00 0.00 0.00 33 1013.9
20260906182003 32 141 27.4 41.8 0.00 0.00 0.00 33 1014.0
20260906181503 31 142 25.7 41.8 0.00 0.00 0.00 33 1014.0
20260906181003 32 144 22.5 35.4 0.00 0.00 0.00 33 1014.1
20260906180503 31 141 20.9 35.4 0.00 0.00 0.00 33 1014.1
20260906180003 31 152 17.7 35.4 0.00 0.00 0.00 33 1014.1
20260906175503 31 159 11.3 35.4 0.00 0.00 0.00 33 1014.2
20260906175003 31 153 17.7 35.4 0.00 0.00 0.00 33 1014.3
20260906174503 31 149 19.3 35.4 0.00 0.00 0.00 33 1014.3
20260906174003 31 159 14.5 29.0 0.00 0.00 0.00 33 1014.3
20260906173503 31 166 11.3 32.2 0.00 0.00 0.00 34 1014.4
20260906173003 31 161 14.5 32.2 0.00 0.00 0.00 33 1014.4
20260906172503 31 164 12.9 32.2 0.00 0.00 0.00 34 1014.6
20260906172003 31 167 12.9 33.8 0.00 0.00 0.00 34 1014.6
20260906171503 30 162 12.9 35.4 0.00 0.00 0.00 34 1014.7
20260906171003 31 159 16.1 35.4 0.00 0.00 0.00 33 1014.8
20260906170503 31 149 22.5 35.4 0.00 0.00 0.00 34 1014.9
20260906170003 30 150 17.7 32.2 0.00 0.00 0.00 34 1014.9
20260906165503 30 157 17.7 32.2 0.00 0.00 0.00 34 1015.0
20260906165003 30 169 12.9 27.4 0.00 0.00 0.00 34 1015.0
20260906164503 30 164 9.7 27.4 0.00 0.00 0.00 34 1015.1
20260906164003 30 169 12.9 27.4 0.00 0.00 0.00 34 1015.1
20260906163503 30 171 12.9 24.1 0.00 0.00 0.00 34 1015.2
20260906163003 30 164 14.5 25.7 0.00 0.00 0.00 34 1015.2
20260906162503 30 164 11.3 25.7 0.00 0.00 0.00 34 1015.3
20260906162003 30 169 9.7 25.7 0.00 0.00 0.00 34 1015.2
20260906161503 30 169 9.7 25.7 0.00 0.00 0.00 35 1015.2
20260906161002 29 169 11.3 25.7 0.00 0.00 0.00 35 1015.2
20260906160503 29 168 11.3 25.7 0.00 0.00 0.00 35 1015.2
20260906160003 29 168 11.3 35.4 0.00 0.00 0.00 36 1015.2
20260906155503 29 179 16.1 35.4 0.00 0.00 0.00 36 1015.2
20260906155003 28 168 11.3 24.1 0.00 0.00 0.00 36 1015.2
20260906154502 28 167 12.9 35.4 0.00 0.00 0.00 37 1015.2
20260906154003 28 174 16.1 35.4 0.00 0.00 0.00 37 1015.2
20260906153502 28 171 12.9 35.4 0.00 0.00 0.00 38 1015.2
20260906153004 28 174 12.9 35.4 0.00 0.00 0.00 38 1015.0
20260906152502 28 172 11.3 27.4 0.00 0.00 0.00 39 1015.1
20260906152003 28 176 12.9 29.0 0.00 0.00 0.00 39 1015.2
20260906151502 27 180 17.7 32.2 0.00 0.00 0.00 39 1015.2
20260906151003 27 183 17.7 33.8 0.00 0.00 0.00 40 1015.2
20260906150503 27 181 17.7 33.8 0.00 0.00 0.00 41 1015.3
20260906150002 27 176 14.5 33.8 0.00 0.00 0.00 42 1015.4
20260906145502 27 175 16.1 33.8 0.00 0.00 0.00 42 1015.5
20260906145002 27 167 9.7 25.7 0.00 0.00 0.00 42 1015.6
20260906144503 27 174 6.4 19.3 0.00 0.00 0.00 43 1015.6
20260906144003 27 163 8.0 27.4 0.00 0.00 0.00 44 1015.7
20260906143503 26 178 9.7 32.2 0.00 0.00 0.00 45 1015.8
20260906143004 26 188 17.7 32.2 0.00 0.00 0.00 45 1015.7
20260906142503 26 197 17.7 29.0 0.00 0.00 0.00 46 1015.6
20260906142004 25 190 14.5 22.5 0.00 0.00 0.00 48 1015.7
20260906141503 25 190 12.9 20.9 0.00 0.00 0.00 50 1015.8
20260906141003 25 165 6.4 12.9 0.00 0.00 0.00 51 1015.9
20260906140504 25 168 8.0 12.9 0.00 0.00 0.00 52 1015.9
20260906140004 23 166 6.4 16.1 0.00 0.00 0.00 55 1015.8
20260906135504 23 163 6.4 16.1 0.00 0.00 0.00 57 1015.8
20260906135003 23 162 4.8 14.5 0.00 0.00 0.00 59 1015.7
20260906134504 23 141 9.7 14.5 0.00 0.00 0.00 60 1015.6
20260906134004 22 145 9.7 14.5 0.00 0.00 0.00 59 1015.6
20260906133503 22 164 3.2 8.0 0.00 0.00 0.00 62 1015.5
20260906133003 21 163 1.6 9.7 0.00 0.00 0.00 67 1015.5
20260906132504 20 176 4.8 11.3 0.00 0.00 0.00 70 1015.6
20260906132003 19 175 3.2 11.3 0.00 0.00 0.00 75 1015.6
20260906131503 18 140 8.0 12.9 0.00 0.00 0.00 77 1015.7
20260906131003 18 140 8.0 12.9 0.00 0.00 0.00 77 1015.7
20260906130504 18 137 9.7 12.9 0.00 0.00 0.00 78 1015.7
20260906130004 18 129 9.7 11.3 0.00 0.00 0.00 79 1015.7
20260906125504 18 126 8.0 11.3 0.00 0.00 0.00 78 1015.6
20260906125003 18 134 9.7 9.7 0.00 0.00 0.00 76 1015.5
20260906124503 18 144 8.0 9.7 0.00 0.00 0.00 78 1015.4
20260906124003 17 138 8.0 9.7 0.00 0.00 0.00 79 1015.4
20260906123504 17 162 3.2 9.7 0.00 0.00 0.00 81 1015.4
20260906123004 17 137 4.8 8.0 0.00 0.00 0.00 81 1015.4
20260906122504 17 180 3.2 12.9 0.00 0.00 0.00 81 1015.3
20260906122003 17 163 4.8 12.9 0.00 0.00 0.00 81 1015.3
20260906121503 17 145 9.7 12.9 0.00 0.00 0.00 81 1015.3
20260906121004 17 154 4.8 12.9 0.00 0.00 0.00 81 1015.3
20260906120503 18 169 4.8 12.9 0.00 0.00 0.00 80 1015.2
20260906120003 18 146 9.7 12.9 0.00 0.00 0.00 79 1015.2
20260906115503 18 147 4.8 11.3 0.00 0.00 0.00 78 1015.2
20260906115003 18 142 8.0 11.3 0.00 0.00 0.00 78 1015.1
20260906114503 18 148 6.4 11.3 0.00 0.00 0.00 76 1015.1
20260906114003 18 95 4.8 11.3 0.00 0.00 0.00 76 1015.1
20260906113503 19 39 1.6 4.8 0.00 0.00 0.00 75 1015.2
20260906113003 19 211 1.6 4.8 0.00 0.00 0.00 73 1015.1
20260906112503 19 166 1.6 4.8 0.00 0.00 0.00 75 1015.0
20260906112003 20 78 1.6 9.7 0.00 0.00 0.00 73 1015.0
20260906111503 21 114 3.2 11.3 0.00 0.00 0.00 63 1015.0
20260906111003 20 183 4.8 11.3 0.00 0.00 0.00 67 1014.9
20260906110503 18 150 0.0 8.0 0.00 0.00 0.00 77 1015.0
20260906110003 18 65 0.0 3.2 0.00 0.00 0.00 77 1015.0
20260906105503 19 70 1.6 9.7 0.00 0.00 0.00 75 1015.0
20260906105003 20 141 1.6 9.7 0.00 0.00 0.00 70 1015.0
20260906104503 19 193 8.0 12.9 0.00 0.00 0.00 72 1014.9
20260906104003 18 174 3.2 12.9 0.00 0.00 0.00 76 1015.0
20260906103503 19 129 9.7 12.9 0.00 0.00 0.00 76 1015.1
20260906103003 18 157 6.4 11.3 0.00 0.00 0.00 76 1015.1
20260906102503 18 138 8.0 11.3 0.00 0.00 0.00 78 1015.0
20260906102003 20 108 6.4 11.3 0.00 0.00 0.00 72 1015.1
20260906101503 20 178 6.4 9.7 0.00 0.00 0.00 71 1015.0
20260906101003 20 171 4.8 14.5 0.00 0.00 0.00 72 1015.0
20260906100503 18 163 3.2 14.5 0.00 0.00 0.00 77 1015.0
20260906100003 18 136 11.3 16.1 0.00 0.00 0.00 79 1015.1
20260906095503 18 128 9.7 16.1 0.00 0.00 0.00 79 1015.0
20260906095003 19 123 11.3 14.5 0.00 0.00 0.00 75 1015.0
20260906094503 20 137 11.3 14.5 0.00 0.00 0.00 71 1014.9
20260906094003 21 137 11.3 14.5 0.00 0.00 0.00 69 1014.9
20260906093503 25 129 11.3 20.9 0.00 0.00 0.00 56 1015.0
20260906093003 25 202 8.0 20.9 0.00 0.00 0.00 51 1014.8
20260906092503 25 222 6.4 20.9 0.00 0.00 0.00 52 1014.7
20260906092003 25 211 6.4 20.9 0.00 0.00 0.00 53 1014.7
20260906091503 25 220 6.4 14.5 0.00 0.00 0.00 54 1014.7
20260906091003 25 213 6.4 14.5 0.00 0.00 0.00 54 1014.8
20260906090503 25 204 8.0 14.5 0.00 0.00 0.00 53 1014.8
20260906090003 25 209 6.4 14.5 0.00 0.00 0.00 54 1014.7
20260906085503 24 220 1.6 9.7 0.00 0.00 0.00 55 1014.7
20260906085003 24 211 3.2 9.7 0.00 0.00 0.00 56 1014.7
20260906084503 23 200 3.2 9.7 0.00 0.00 0.00 57 1014.7
20260906084003 23 201 3.2 9.7 0.00 0.00 0.00 59 1014.7
20260906083502 22 190 4.8 9.7 0.00 0.00 0.00 62 1014.7
20260906083003 23 287 1.6 12.9 0.00 0.00 0.00 62 1014.7
20260906082503 23 202 4.8 14.5 0.00 0.00 0.00 59 1014.8
20260906082003 23 192 8.0 14.5 0.00 0.00 0.00 59 1014.8
20260906081503 23 191 9.7 12.9 0.00 0.00 0.00 62 1014.8
20260906081003 22 173 4.8 11.3 0.00 0.00 0.00 63 1014.8
20260906080503 22 161 3.2 19.3 0.00 0.00 0.00 65 1014.9
20260906080002 22 176 6.4 19.3 0.00 0.00 0.00 65 1014.9
20260906075503 22 190 12.9 19.3 0.00 0.00 0.00 67 1014.9
20260906075003 21 188 12.9 19.3 0.00 0.00 0.00 69 1015.0
20260906074503 21 188 11.3 19.3 0.00 0.00 0.00 69 1015.0
20260906074003 20 187 11.3 16.1 0.00 0.00 0.00 71 1015.1
20260906073503 20 185 9.7 14.5 0.00 0.00 0.00 72 1015.2
20260906073003 20 182 6.4 12.9 0.00 0.00 0.00 72 1015.2
20260906072503 20 162 4.8 12.9 0.00 0.00 0.00 72 1015.3
20260906072002 20 131 9.7 12.9 0.00 0.00 0.00 71 1015.3
20260906071503 20 131 8.0 11.3 0.00 0.00 0.00 70 1015.3
20260906071003 21 137 8.0 9.7 0.00 0.00 0.00 68 1015.3
20260906070503 21 158 4.8 9.7 0.00 0.00 0.00 67 1015.2
20260906070003 21 175 4.8 11.3 0.00 0.00 0.00 65 1015.1
20260906065503 22 170 4.8 11.3 0.00 0.00 0.00 65 1015.1
20260906065003 23 150 6.4 11.3 0.00 0.00 0.00 61 1015.1
20260906064503 23 171 4.8 8.0 0.00 0.00 0.00 58 1015.2
20260906064003 24 170 3.2 8.0 0.00 0.00 0.00 58 1015.0
20260906063503 25 148 4.8 8.0 0.00 0.00 0.00 56 1015.0
20260906063003 25 135 3.2 8.0 0.00 0.00 0.00 56 1014.9
20260906062503 25 293 0.0 1.6 0.00 0.00 0.00 55 1015.0
20260906062003 25 316 0.0 3.2 0.00 0.00 0.00 55 1014.9
20260906061503 24 322 0.0 4.8 0.00 0.00 0.00 55 1014.8
20260906061003 24 320 3.2 4.8 0.00 0.00 0.00 56 1014.7
20260906060503 23 309 3.2 4.8 0.00 0.00 0.00 56 1014.7
20260906060004 23 305 3.2 4.8 0.00 0.00 0.00 57 1014.7
20260906055503 23 265 1.6 3.2 0.00 0.00 0.00 58 1014.8
20260906055003 23 239 1.6 8.0 0.00 0.00 0.00 59 1014.9
20260906054503 23 263 1.6 8.0 0.00 0.00 0.00 55 1015.0
20260906054003 23 190 3.2 8.0 0.00 0.00 0.00 55 1015.1
20260906053503 23 181 3.2 8.0 0.00 0.00 0.00 54 1015.2
20260906053003 23 173 3.2 8.0 0.00 0.00 0.00 53 1015.3
20260906052503 23 184 4.8 8.0 0.00 0.00 0.00 53 1015.3
20260906052003 23 175 3.2 8.0 0.00 0.00 0.00 53 1015.4
20260906051503 24 168 3.2 8.0 0.00 0.00 0.00 51 1015.4
20260906051003 24 168 3.2 9.7 0.00 0.00 0.00 50 1015.4
20260906050503 24 164 1.6 9.7 0.00 0.00 0.00 52 1015.4
20260906050003 23 155 4.8 9.7 0.00 0.00 0.00 54 1015.4
20260906045502 23 152 4.8 11.3 0.00 0.00 0.00 56 1015.4
20260906045003 23 147 6.4 11.3 0.00 0.00 0.00 54 1015.5
20260906044503 24 142 9.7 11.3 0.00 0.00 0.00 53 1015.6
20260906044003 23 139 8.0 9.7 0.00 0.00 0.00 53 1015.6
20260906043503 23 159 4.8 12.9 0.00 0.00 0.00 57 1015.5
20260906043003 23 178 8.0 12.9 0.00 0.00 0.00 59 1015.5
20260906042502 25 192 8.0 12.9 0.00 0.00 0.00 49 1015.3
20260906042002 25 270 4.8 9.7 0.00 0.00 0.00 47 1015.0
20260906041504 25 282 4.8 8.0 0.00 0.00 0.00 47 1015.0
20260906041004 25 314 4.8 8.0 0.00 0.00 0.00 49 1015.0
20260906040503 25 336 1.6 4.8 0.00 0.00 0.00 50 1015.1
20260906040003 26 17 0.0 4.8 0.00 0.00 0.00 46 1015.2
20260906035504 26 292 3.2 8.0 0.00 0.00 0.00 44 1015.2
20260906035004 26 283 4.8 8.0 0.00 0.00 0.00 44 1015.2
20260906034503 26 283 4.8 8.0 0.00 0.00 0.00 44 1015.2
20260906034004 26 287 6.4 8.0 0.00 0.00 0.00 46 1015.2
20260906033503 26 287 4.8 8.0 0.00 0.00 0.00 48 1015.3
20260906033003 26 269 4.8 8.0 0.00 0.00 0.00 45 1015.2
20260906032503 26 211 1.6 4.8 0.00 0.00 0.00 46 1015.2
20260906032004 26 185 1.6 4.8 0.00 0.00 0.00 45 1015.3
20260906031504 27 166 0.0 11.3 0.00 0.00 0.00 42 1015.3
20260906031003 27 179 3.2 11.3 0.00 0.00 0.00 41 1015.1
20260906030504 26 183 8.0 11.3 0.00 0.00 0.00 45 1015.1
20260906030004 26 180 6.4 11.3 0.00 0.00 0.00 45 1015.0
20260906025503 26 176 4.8 9.7 0.00 0.00 0.00 46 1015.0
20260906025004 26 181 4.8 8.0 0.00 0.00 0.00 45 1015.0
20260906024504 27 185 6.4 8.0 0.00 0.00 0.00 43 1014.9
20260906024004 27 197 4.8 8.0 0.00 0.00 0.00 43 1014.8
20260906023503 27 199 4.8 8.0 0.00 0.00 0.00 43 1014.8
20260906023004 27 208 4.8 9.7 0.00 0.00 0.00 43 1014.7
20260906022503 27 221 3.2 11.3 0.00 0.00 0.00 43 1014.7
20260906022004 27 227 4.8 11.3 0.00 0.00 0.00 45 1014.6
20260906021503 27 235 6.4 11.3 0.00 0.00 0.00 46 1014.5
20260906021003 27 233 4.8 11.3 0.00 0.00 0.00 47 1014.5
20260906020504 27 241 4.8 11.3 0.00 0.00 0.00 48 1014.4
20260906020004 27 245 4.8 8.0 0.00 0.00 0.00 49 1014.4
20260906015503 27 228 3.2 9.7 0.00 0.00 0.00 49 1014.3
20260906015004 27 253 4.8 9.7 0.00 0.00 0.00 49 1014.3
20260906014503 27 232 4.8 11.3 0.00 0.00 0.00 50 1014.2
20260906014004 27 206 6.4 12.9 0.00 0.00 0.00 50 1014.3
20260906013504 27 201 8.0 12.9 0.00 0.00 0.00 49 1014.2
20260906013004 27 192 9.7 12.9 0.00 0.00 0.00 49 1014.3
20260906012504 27 200 8.0 12.9 0.00 0.00 0.00 49 1014.3
20260906012004 27 209 6.4 11.3 0.00 0.00 0.00 49 1014.3
20260906011503 27 211 4.8 14.5 0.00 0.00 0.00 47 1014.4
20260906011004 27 203 8.0 14.5 0.00 0.00 0.00 46 1014.4
20260906010504 27 203 9.7 14.5 0.00 0.00 0.00 45 1014.4
20260906010004 27 205 9.7 14.5 0.00 0.00 0.00 44 1014.4
20260906005504 28 197 11.3 14.5 0.00 0.00 0.00 42 1014.5
20260906005003 28 189 9.7 12.9 0.00 0.00 0.00 41 1014.6
20260906004503 28 175 6.4 19.3 0.00 0.00 0.00 41 1014.5
20260906004003 28 157 8.0 24.1 0.00 0.00 0.00 40 1014.5
20260906003503 28 157 9.7 33.8 0.00 0.00 0.00 39 1014.6
20260906003003 28 148 16.1 33.8 0.00 0.00 0.00 38 1014.8
20260906002503 28 135 25.7 37.0 0.00 0.00 0.00 37 1014.7
20260906002003 28 146 22.5 37.0 0.00 0.00 0.00 37 1014.8
20260906001503 28 150 19.3 37.0 0.00 0.00 0.00 37 1014.9
20260906001003 28 153 14.5 37.0 0.00 0.00 0.00 36 1014.8
20260906000503 29 154 19.3 37.0 0.00 0.00 0.00 35 1015.0
20260906000004 29 146 14.5 25.7 0.00 0.00 0.00 35 1014.7
20260905235503 30 146 14.5 25.7 0.00 0.00 0.00 33 1014.6
20260905235003 30 138 14.5 25.7 0.00 0.00 0.00 34 1014.6
20260905234503 30 144 14.5 25.7 0.00 0.00 0.00 34 1014.5
20260905234003 30 144 12.9 19.3 0.00 0.00 0.00 34 1014.3
20260905233504 30 144 11.3 16.1 0.00 0.00 0.00 33 1014.1
20260905233004 30 144 9.7 19.3 0.00 0.00 0.00 33 1014.1
20260905232504 30 150 9.7 20.9 0.00 0.00 0.00 34 1014.1
20260905232004 30 144 12.9 20.9 0.00 0.00 0.00 34 1014.1
20260905231503 30 145 12.9 20.9 0.00 0.00 0.00 34 1014.1
20260905231003 30 141 14.5 20.9 0.00 0.00 0.00 34 1014.1
20260905230503 30 141 14.5 20.9 0.00 0.00 0.00 34 1014.1
20260905230003 30 126 11.3 20.9 0.00 0.00 0.00 34 1014.1
20260905225503 30 125 11.3 19.3 0.00 0.00 0.00 35 1014.1
20260905225003 29 123 11.3 14.5 0.00 0.00 0.00 36 1014.0
20260905224503 29 116 9.7 16.1 0.00 0.00 0.00 37 1013.9
20260905224003 29 115 12.9 16.1 0.00 0.00 0.00 37 1014.0
20260905223503 30 120 11.3 14.5 0.00 0.00 0.00 35 1014.0
20260905223003 29 134 9.7 19.3 0.00 0.00 0.00 34 1014.0
20260905222503 29 151 9.7 19.3 0.00 0.00 0.00 34 1013.9
20260905222003 30 134 9.7 16.1 0.00 0.00 0.00 34 1013.9
20260905221503 30 144 9.7 16.1 0.00 0.00 0.00 35 1013.9
20260905221003 30 111 8.0 20.9 0.00 0.00 0.00 35 1013.8
20260905220503 29 107 9.7 29.0 0.00 0.00 0.00 36 1013.8
20260905220003 29 115 16.1 29.0 0.00 0.00 0.00 36 1013.8
20260905215502 30 119 20.9 29.0 0.00 0.00 0.00 32 1013.9
20260905215003 31 135 16.1 27.4 0.00 0.00 0.00 32 1014.0
20260905214503 32 120 16.1 27.4 0.00 0.00 0.00 30 1014.2
20260905214003 31 120 11.3 19.3 0.00 0.00 0.00 30 1014.2
20260905213503 31 127 11.3 14.5 0.00 0.00 0.00 31 1014.2
20260905213003 31 126 12.9 14.5 0.00 0.00 0.00 31 1014.2
20260905212503 31 121 11.3 14.5 0.00 0.00 0.00 30 1014.2